Theta_e
320 320 321 321 322 323 324 325 325 326 326 326 327 327 327 328 327 326 326 325 325 325 324 324 324 324 325 326 326 326 328 329 328 329 330 329 329 329 330 331 330 330 330 330 328 326 325 326 327 328 330 329 328 328 329 329 330 331 330 329 328 328 328 328 328 329 328 328 328 328 328 328 328 328 328 328 327 326 325 324 322 322 324 325 324
319 320 321 320 321 323 324 324 324 324 324 324 325 326 327 327 327 326 326 326 326 326 324 324 325 325 326 326 327 327 327 327 327 327 327 327 327 328 327 326 326 326 327 328 326 324 324 324 323 325 327 330 330 330 330 330 330 330 329 328 328 328 328 327 327 328 328 328 328 328 328 328 328 328 328 327 325 324 324 323 322 323 325 324 323
319 319 320 319 320 322 322 322 323 323 323 323 323 324 326 326 326 326 326 327 327 326 325 325 325 325 326 325 326 326 325 326 326 326 326 326 327 328 326 324 324 323 323 323 323 323 324 325 325 326 327 329 331 330 329 329 329 328 328 329 328 328 328 327 327 327 327 328 329 328 328 328 328 327 327 325 324 323 322 322 322 323 323 322 321
319 319 318 318 319 321 321 322 322 322 322 323 323 323 324 325 326 326 326 327 328 327 326 326 326 326 325 324 325 324 323 323 325 326 326 326 327 329 328 327 327 327 325 324 324 324 323 322 324 327 327 328 329 329 328 328 328 328 328 328 328 328 328 328 327 327 327 328 328 328 328 328 327 326 326 325 324 322 321 321 320 320 320 319 317
319 318 318 318 319 321 322 322 321 321 323 323 323 322 323 324 325 325 325 327 328 327 326 326 326 326 326 326 326 325 324 323 325 326 326 326 327 328 328 328 328 328 328 328 329 329 327 325 325 326 327 328 328 328 328 328 328 328 329 329 328 328 328 328 328 327 327 328 328 327 328 327 326 326 325 324 321 320 320 318 316 318 319 319 317
319 318 318 318 318 320 321 321 321 322 323 323 323 323 324 324 325 325 325 326 327 327 326 326 326 326 326 327 326 326 326 326 326 326 327 326 326 327 328 328 328 327 328 328 329 329 328 327 327 328 328 328 328 328 328 327 327 328 329 329 328 328 328 329 328 328 328 327 327 327 327 327 326 324 325 324 319 317 318 316 315 319 320 319 317
318 318 318 317 317 318 319 320 321 322 323 323 323 323 323 324 324 324 325 325 326 326 326 326 326 326 326 327 327 327 327 327 327 327 327 326 326 326 327 326 326 326 326 326 327 328 327 327 328 328 327 327 328 328 329 327 326 327 329 329 328 327 327 328 328 328 328 327 326 327 327 326 325 324 325 324 318 315 317 317 317 320 321 320 317
317 317 317 316 316 317 318 319 321 321 321 321 321 321 322 323 323 323 323 324 324 325 325 325 326 326 326 327 327 327 327 326 326 326 326 326 326 326 326 325 326 326 326 326 326 327 327 327 328 328 327 328 328 328 328 328 327 328 328 328 328 328 327 327 327 327 327 326 326 327 326 325 325 324 323 321 317 317 319 319 318 319 320 320 318
316 316 316 316 316 316 317 319 320 320 320 320 320 320 320 321 322 322 322 323 323 324 324 324 325 325 326 326 326 327 326 326 326 325 325 325 325 324 325 325 325 325 326 327 327 327 327 327 327 328 328 328 328 328 328 328 327 328 328 327 327 327 327 326 325 326 327 326 326 325 325 325 324 324 323 319 317 319 321 320 317 318 320 319 318
316 315 315 315 315 315 317 318 319 319 319 319 319 319 319 320 321 321 321 321 322 322 323 323 323 324 324 324 324 325 325 325 325 324 324 324 324 324 324 325 325 324 325 325 326 326 327 326 326 327 327 328 328 327 328 328 327 326 327 327 327 327 327 326 324 326 326 325 325 324 324 324 324 324 323 320 318 319 321 320 318 318 320 319 317
315 315 315 314 314 314 316 317 318 317 317 317 318 318 319 319 320 320 320 320 320 321 321 321 322 322 323 323 323 324 324 323 323 323 323 323 323 323 323 323 323 323 323 324 324 325 326 326 325 326 326 327 327 327 327 326 326 326 327 327 326 325 326 326 325 325 326 325 324 324 323 323 323 323 322 321 320 320 320 320 318 318 319 318 317
315 314 314 314 313 314 316 317 317 316 316 317 318 318 319 319 318 318 318 319 319 319 319 319 319 320 321 322 322 321 321 321 321 321 321 321 322 322 322 322 322 322 323 323 323 324 325 325 325 325 326 326 326 327 328 327 326 327 327 326 324 324 325 326 325 325 325 324 324 323 323 322 321 322 322 321 321 320 320 319 318 318 318 317 317
314 314 313 314 314 314 316 316 316 316 316 317 318 318 318 318 317 317 316 317 317 317 317 317 317 317 319 320 320 320 319 319 319 320 320 320 320 320 320 320 321 322 322 322 323 324 325 324 323 324 325 326 325 326 327 326 326 327 326 325 325 325 326 327 325 324 323 323 323 323 323 323 322 321 322 322 321 321 320 319 318 318 317 317 317
313 313 312 313 314 315 315 316 315 315 316 316 316 317 317 317 317 316 316 316 316 316 316 316 316 316 318 319 319 319 319 318 318 318 319 319 318 318 318 318 318 320 321 323 323 323 323 323 322 323 323 324 324 324 324 325 326 327 326 325 325 326 326 326 325 324 322 322 323 323 322 322 322 321 322 322 321 320 320 320 319 319 318 318 318
312 312 312 312 313 314 315 315 315 315 315 315 316 316 316 316 316 315 316 316 316 316 316 316 315 315 316 317 317 318 318 318 318 318 318 318 317 316 316 316 316 317 319 321 322 323 322 322 322 322 321 321 322 322 322 324 325 325 324 325 325 325 325 325 324 323 322 322 322 322 322 322 322 322 322 321 321 320 320 320 320 319 319 319 319
312 312 312 312 312 313 314 314 315 315 315 316 316 315 315 315 314 315 315 315 315 315 316 316 315 314 314 314 315 315 316 317 317 317 317 317 316 315 314 314 313 314 316 318 319 321 322 322 322 321 320 320 321 322 322 322 322 322 323 324 324 324 323 323 323 322 321 322 322 322 322 322 322 321 321 320 321 321 321 321 320 319 320 320 319
312 312 312 312 312 312 313 313 313 314 314 314 314 314 314 314 313 314 314 314 314 314 315 315 315 315 314 314 314 314 314 315 316 316 315 316 316 315 315 315 315 315 316 317 317 318 319 320 320 320 321 321 322 323 322 321 320 320 321 322 322 322 322 322 322 322 322 322 322 321 321 322 322 322 322 321 321 321 321 320 319 319 319 319 319
311 312 312 312 312 312 312 312 312 312 312 312 312 312 312 312 312 312 313 313 313 313 313 314 314 314 314 314 314 314 314 315 315 314 314 315 315 316 316 316 317 317 316 317 317 317 317 318 318 319 319 320 321 322 321 319 317 317 317 318 318 318 318 318 319 321 321 321 321 321 321 321 321 321 321 320 320 319 319 319 319 319 319 318 318
310 311 310 310 310 310 310 310 311 311 310 310 309 310 310 309 310 310 311 311 311 312 312 312 312 312 312 313 313 314 314 314 314 314 313 314 314 315 315 315 315 316 316 316 316 316 317 317 317 317 317 317 318 319 318 318 318 317 317 315 314 315 315 316 315 316 317 317 318 319 319 319 319 319 319 318 318 318 318 318 318 318 318 318 318
308 308 308 308 308 308 308 308 309 309 309 308 308 307 307 307 308 308 308 308 308 309 310 310 310 310 310 311 312 312 312 312 312 312 312 312 313 313 314 314 314 314 315 315 315 315 315 315 315 315 314 314 315 314 314 315 317 318 317 316 315 315 316 316 314 313 315 316 316 317 317 317 318 318 318 317 317 317 317 318 318 318 318 318 318
305 304 304 304 304 304 305 305 306 306 306 306 306 306 305 305 305 305 305 305 305 305 305 307 308 308 308 309 309 309 309 309 309 309 310 310 310 311 311 312 312 313 313 314 313 313 313 313 313 313 313 313 313 314 314 315 316 316 316 316 316 316 315 315 315 314 314 315 316 316 315 316 316 316 316 316 316 316 317 317 317 317 317 316 316
302 302 302 301 300 299 299 300 301 302 302 303 304 304 304 303 302 302 302 302 302 302 301 301 303 303 304 304 304 304 304 304 305 306 307 307 308 308 309 309 310 311 312 312 312 311 311 310 310 311 312 313 313 314 315 315 315 315 315 315 316 316 315 315 316 315 315 315 315 314 313 313 313 313 313 313 314 315 315 315 315 315 315 314 314
299 300 300 300 298 296 296 296 296 297 298 299 299 300 300 300 300 300 300 300 300 300 299 299 299 299 299 299 299 299 299 300 300 301 302 303 303 304 305 305 306 308 309 309 308 308 307 307 307 308 309 310 311 312 313 314 314 315 314 314 314 314 314 314 313 313 313 313 312 311 310 310 309 307 306 305 305 307 308 309 310 311 312 313 313
297 297 297 297 296 295 295 296 296 296 296 296 296 296 297 297 296 297 297 298 298 298 298 298 298 298 298 298 298 298 298 298 298 298 299 299 299 300 300 301 301 303 304 305 304 304 305 305 305 305 305 306 307 307 309 309 310 311 311 312 312 311 311 311 310 310 310 310 310 309 308 306 305 304 302 301 300 300 301 302 303 305 307 309 310
296 296 296 296 296 296 296 296 296 296 296 296 296 296 296 296 296 295 295 295 296 296 296 296 297 297 297 297 297 297 297 297 297 297 297 297 298 298 298 298 298 299 300 300 301 301 302 303 303 303 304 304 304 304 305 304 305 305 306 307 307 307 306 306 306 306 306 306 306 306 305 304 303 303 302 302 301 300 300 300 301 302 303 306 308
298 298 298 299 299 299 299 298 297 297 296 296 297 296 296 296 295 295 295 295 295 295 295 295 295 295 296 296 296 296 296 297 297 297 297 297 297 297 297 297 298 298 298 298 298 299 299 300 301 302 302 302 302 302 302 302 302 302 302 303 303 304 303 303 303 302 302 303 303 303 303 302 303 303 303 302 301 301 300 300 300 301 301 303 304
300 301 301 301 301 301 300 300 299 298 297 297 297 298 297 297 296 296 295 295 294 295 295 295 295 295 295 296 296 296 296 296 297 297 297 297 297 297 297 297 297 298 299 300 300 300 300 299 300 300 300 301 301 301 301 301 301 301 300 300 300 300 301 301 301 301 301 301 301 301 301 301 301 302 303 302 302 302 302 302 301 301 301 301 301
301 301 301 301 301 301 301 301 300 300 299 298 298 299 298 298 297 297 296 295 295 295 294 294 295 295 295 295 296 296 296 297 297 297 298 298 298 298 298 298 298 298 299 300 301 301 301 301 300 300 300 300 300 300 301 301 301 301 300 299 299 299 299 298 298 298 299 299 299 300 300 300 300 301 302 302 302 302 302 302 302 302 302 301 300
301 301 301 301 301 301 300 300 300 300 300 299 299 299 299 298 298 298 296 295 295 295 295 295 295 294 294 295 296 297 297 297 298 298 298 298 299 299 299 299 299 299 299 300 300 300 301 301 300 300 300 301 300 300 301 301 301 300 300 300 300 300 299 298 297 297 298 299 299 300 299 300 300 301 301 302 302 302 302 301 302 302 302 301 300
301 301 301 300 300 300 300 300 300 300 300 299 299 299 299 299 298 298 297 296 295 295 295 295 295 295 295 295 297 297 298 298 298 298 298 298 298 299 299 299 298 298 299 299 299 299 299 299 299 299 300 300 300 300 300 300 300 300 300 300 300 299 299 298 297 297 297 298 300 300 300 300 300 300 300 300 300 301 301 301 301 301 301 301 300
300 300 300 300 300 300 300 300 300 300 300 299 299 299 299 299 299 298 297 296 296 296 296 296 295 295 295 296 297 298 298 298 298 298 298 298 298 298 298 298 298 298 298 298 298 298 298 298 299 299 299 299 300 300 299 299 299 299 300 300 299 299 298 298 298 297 297 298 299 300 300 300 300 300 299 299 300 301 301 301 301 301 301 300 300
300 300 300 300 300 299 299 299 300 300 300 299 299 299 299 299 299 298 298 296 296 296 296 296 296 295 296 296 297 297 298 298 298 298 297 297 297 297 297 296 296 296 297 297 297 298 298 297 297 298 298 298 298 299 299 299 299 299 299 299 299 298 298 298 298 298 298 298 299 300 300 300 300 299 299 299 300 300 299 300 300 300 300 300 300
301 300 300 300 299 299 299 299 299 300 299 299 298 298 298 298 299 298 298 296 295 295 296 296 296 296 296 296 296 296 297 297 297 297 297 297 297 296 296 296 296 295 295 295 296 296 297 297 296 297 297 297 297 298 298 298 298 298 298 298 298 298 298 298 298 298 298 299 299 299 299 299 299 299 299 299 299 299 299 299 299 299 300 299 299
301 300 300 300 299 299 299 298 299 299 299 299 298 298 298 298 298 298 298 297 296 295 295 296 297 297 296 296 295 296 296 296 296 296 296 296 296 296 296 296 296 295 295 295 295 295 295 295 296 296 296 296 296 296 296 297 297 298 298 298 298 298 298 298 297 298 298 298 298 298 298 298 298 298 298 298 298 298 298 298 299 299 299 299 298
300 300 299 299 299 298 298 298 298 299 299 299 298 298 298 298 298 298 297 297 297 296 295 295 297 297 297 296 296 295 295 295 296 296 296 296 295 295 296 295 295 295 295 295 295 295 295 295 295 295 295 295 295 295 295 296 296 296 297 297 298 298 298 297 297 297 297 297 298 298 298 298 297 297 298 298 298 298 298 298 298 298 298 298 298
298 298 298 298 298 298 298 298 298 298 298 298 298 297 297 297 297 297 297 297 297 296 296 295 296 297 297 296 296 296 295 295 295 295 295 295 295 295 295 295 295 295 295 295 295 295 295 294 294 294 293 293 294 294 295 295 295 296 296 296 297 297 297 297 297 297 297 297 297 297 297 297 297 297 297 297 297 297 297 297 297 298 298 298 298
298 298 298 298 299 299 298 298 298 297 297 297 297 297 297 297 297 297 297 297 297 297 296 295 296 296 296 296 296 296 295 295 294 294 294 295 295 295 294 294 294 294 294 294 294 294 294 294 294 293 293 293 293 293 294 294 295 295 296 296 296 296 297 297 297 297 297 297 297 297 297 296 297 297 297 297 297 297 297 297 297 297 297 297 297
299 299 298 298 299 299 299 298 298 297 297 297 297 296 296 297 296 297 297 297 297 296 296 296 295 296 296 296 295 295 295 295 294 294 294 294 294 294 294 294 294 293 293 293 292 292 293 294 293 293 293 292 293 293 293 294 295 295 295 296 296 296 296 296 296 296 296 296 296 296 296 296 296 296 297 297 296 296 296 296 296 296 296 296 296
299 298 298 298 298 298 298 298 298 297 297 297 297 297 297 296 296 296 297 297 296 296 296 296 296 296 296 296 295 295 295 295 295 294 294 294 294 294 294 293 293 293 293 292 290 291 292 293 293 292 292 292 293 293 293 293 294 295 295 295 295 295 295 295 295 295 295 295 296 296 296 295 295 296 296 296 296 295 295 295 295 295 295 295 295
298 298 298 298 298 298 297 298 298 297 297 297 297 297 297 296 296 296 296 296 296 296 296 296 296 296 296 296 296 295 295 295 295 295 294 294 294 294 294 293 293 292 293 292 290 290 291 291 291 291 291 291 292 293 293 293 294 294 294 295 295 295 295 295 295 295 295 295 295 295 295 295 295 295 295 296 295 295 295 294 294 294 294 293 293
298 298 298 298 298 297 297 297 297 297 297 297 297 297 297 296 296 296 296 296 296 297 296 296 296 296 296 296 296 296 296 295 295 295 295 294 294 294 294 293 293 293 293 292 291 291 290 290 290 290 290 290 291 292 292 292 293 294 293 293 294 294 294 295 295 295 295 295 295 295 295 295 295 295 295 294 294 294 293 293 293 293 292 292 292
298 298 298 298 298 298 297 296 297 297 297 297 297 297 297 297 297 296 296 296 296 296 296 296 296 296 296 296 296 296 296 296 296 296 295 295 295 294 294 294 293 293 293 293 292 291 291 291 290 290 290 289 290 290 291 291 292 293 293 293 293 294 294 294 294 294 294 295 295 295 295 294 294 294 294 294 293 293 293 292 292 292 291 291 292
298 298 298 298 298 298 297 297 297 297 297 297 297 297 297 297 297 296 296 296 296 296 296 296 296 296 296 296 296 296 296 296 296 296 296 295 295 295 294 294 294 293 293 293 292 292 292 292 291 291 290 289 288 289 290 290 291 291 292 293 293 293 294 294 294 294 294 294 294 294 294 294 294 294 293 294 293 293 293 292 292 292 292 292 292
298 298 298 298 298 298 297 297 297 297 297 297 297 297 297 297 297 296 296 296 296 296 296 296 297 297 297 296 296 296 296 296 296 296 296 296 295 295 295 294 294 294 294 293 293 293 293 293 292 291 291 290 289 288 288 289 289 289 290 291 292 293 293 293 294 294 294 293 293 294 294 294 294 294 293 293 293 293 293 293 293 292 292 292 292
299 298 298 298 298 298 298 297 297 298 297 297 297 297 297 297 297 297 297 296 296 296 296 297 297 296 296 296 296 296 296 296 296 296 296 296 296 295 295 295 294 294 294 294 293 293 293 293 292 291 291 291 290 289 288 288 287 287 287 288 289 290 291 292 293 293 293 293 293 293 293 293 293 293 293 293 293 293 293 292 293 293 292 292 292
298 298 298 298 298 298 298 297 297 298 298 297 297 297 297 297 297 297 297 296 296 296 296 296 296 296 296 296 296 296 296 296 296 296 296 296 296 295 295 295 295 295 294 294 293 293 293 293 293 292 292 291 291 290 289 288 287 287 286 286 286 286 287 288 289 290 292 293 294 293 293 293 293 293 293 293 292 292 292 292 292 292 292 292 292
298 298 298 298 298 298 298 298 297 298 298 297 297 297 297 297 297 297 297 296 296 296 296 296 296 296 296 296 296 296 296 296 296 296 296 296 295 295 295 295 295 295 295 294 294 294 293 293 293 293 293 292 292 291 290 289 288 288 287 286 286 286 286 286 286 287 290 293 294 293 293 293 293 293 293 293 292 292 292 292 292 292 291 292 292
298 298 298 298 298 298 298 298 298 298 298 297 297 297 297 297 297 297 297 296 296 296 296 296 296 296 296 296 296 296 296 296 296 296 295 295 295 295 295 295 295 295 295 295 294 294 294 294 293 293 293 293 293 292 291 290 289 289 289 288 288 287 286 286 286 286 287 289 292 294 294 293 293 293 293 293 293 292 292 292 292 291 291 291 291
299 298 298 298 298 298 298 298 298 298 298 298 298 297 297 297 297 297 297 296 296 296 296 296 296 296 296 296 296 296 296 295 295 295 295 295 295 295 294 294 294 295 295 294 294 294 294 294 294 293 293 293 293 293 292 291 290 289 289 289 289 288 287 287 286 286 285 286 288 291 293 293 293 293 292 292 292 292 292 292 291 291 291 290 291
298 298 298 298 298 298 298 298 298 298 298 298 297 297 297 297 297 297 297 297 296 296 296 296 296 296 296 296 296 296 295 295 295 295 295 295 294 294 294 294 294 294 294 294 294 294 294 294 294 293 293 293 293 293 292 292 291 290 288 288 289 289 289 288 287 286 286 285 285 286 288 290 292 293 293 293 292 292 292 292 291 291 291 290 290
298 298 298 298 298 298 298 298 298 298 298 298 297 297 297 297 297 297 297 297 296 296 296 296 296 296 296 296 296 296 296 295 295 295 294 294 294 294 294 294 294 294 294 294 294 294 294 294 294 294 293 293 293 293 292 292 291 290 289 290 290 289 289 289 288 287 286 285 285 285 286 286 288 290 292 293 292 292 291 291 291 291 291 291 291
Wind_Speed
8 9 11 12 12 12 11 10 11 11 12 12 13 13 14 16 17 18 19 19 20 20 20 19 20 20 17 15 15 12 9 8 7 6 4 5 8 10 10 10 7 5 12 14 11 11 11 12 14 17 20 21 21 22 22 21 21 20 18 16 15 16 17 16 16 17 19 20 21 21 21 20 20 20 19 19 19 19 19 18 18 17 15 14 14
11 12 13 13 11 10 10 11 12 11 11 12 12 12 13 15 17 18 17 18 18 19 19 18 18 18 17 16 16 14 10 9 9 8 6 5 5 4 4 3 4 5 5 8 9 10 11 12 11 15 17 17 19 21 20 18 19 19 18 16 15 17 19 18 18 20 21 23 23 22 21 22 21 20 20 19 18 18 19 19 19 17 14 14 13
15 14 13 12 10 8 8 10 11 11 11 12 12 12 13 13 15 16 17 17 17 17 17 17 16 16 15 14 13 12 11 10 10 9 7 7 5 2 2 2 1 2 4 6 5 5 7 9 11 16 17 16 18 19 18 17 17 18 19 17 16 17 18 18 20 22 23 25 25 23 23 23 21 19 19 17 15 14 16 17 18 16 14 13 12
16 14 13 12 11 9 9 9 10 10 11 12 13 13 13 13 13 15 16 16 15 15 16 15 14 14 14 13 11 10 9 8 8 7 7 7 5 3 3 3 3 4 4 5 5 6 7 9 12 15 15 15 17 16 15 16 16 18 19 18 16 16 16 17 20 21 22 25 26 24 22 22 21 18 18 17 15 13 13 16 16 14 13 11 9
13 13 13 13 13 12 12 11 11 12 13 14 14 14 14 14 14 13 13 13 13 13 15 14 14 14 13 12 11 10 8 7 7 7 7 7 5 3 4 4 4 5 4 3 5 8 10 11 12 13 13 14 15 12 12 14 16 17 18 16 14 15 17 19 20 21 21 24 26 25 22 22 20 18 19 17 15 14 14 14 14 14 13 10 7
10 12 13 14 15 15 15 14 14 14 15 16 15 14 13 13 13 12 10 10 12 13 14 15 14 14 12 10 10 10 8 8 8 7 7 7 6 4 4 5 5 3 3 2 4 5 4 6 9 10 10 11 11 10 9 11 14 16 16 14 14 16 19 21 20 19 21 24 26 25 23 23 21 19 19 18 17 17 16 14 14 13 13 10 6
11 13 15 17 18 17 17 16 15 15 16 16 15 14 13 12 12 11 10 9 10 13 14 15 15 13 11 10 9 8 8 8 9 9 7 7 6 5 5 6 6 4 3 1 2 3 3 5 7 7 7 6 8 10 9 10 13 15 14 14 15 17 19 20 19 18 21 25 27 26 24 24 23 20 18 17 18 18 16 15 16 15 13 11 8
15 18 19 18 18 17 16 15 16 16 16 16 15 15 14 12 11 11 11 11 11 13 13 13 14 13 11 11 10 8 9 10 10 11 9 7 6 5 6 7 8 7 5 3 2 2 3 5 6 7 7 6 7 8 8 10 12 13 13 14 15 16 16 17 18 18 20 25 27 24 23 24 24 20 17 17 19 20 17 16 17 15 15 14 10
17 19 19 18 17 17 16 16 17 18 17 17 17 17 16 14 12 11 12 12 12 12 11 11 12 12 12 12 10 9 11 12 11 12 11 10 8 6 7 8 10 9 6 5 5 4 3 4 5 6 4 3 5 7 7 9 11 11 12 12 13 14 14 16 18 19 21 24 25 23 23 25 24 22 19 18 19 20 19 18 17 15 16 15 11
16 18 18 17 16 16 17 18 19 20 21 21 21 21 20 17 15 14 14 14 13 13 13 12 13 14 14 14 12 11 12 13 13 13 13 13 11 9 9 10 11 9 7 7 7 6 5 4 3 4 3 4 6 7 7 8 9 9 9 10 12 14 14 17 20 20 21 24 25 25 27 27 26 25 22 20 19 19 21 21 19 18 18 17 14
16 18 17 17 16 17 17 19 20 22 23 24 24 23 22 21 21 21 20 19 18 17 17 16 17 17 16 15 14 14 14 15 15 14 13 14 13 11 11 11 12 12 10 9 10 7 4 3 2 2 3 4 5 6 7 7 7 6 7 9 12 13 14 18 22 23 24 27 27 28 29 28 28 28 25 24 21 18 21 25 23 21 22 20 18
16 17 17 16 16 17 18 19 21 22 23 24 24 23 22 22 23 24 23 23 21 20 20 19 19 19 18 17 17 17 18 17 17 16 15 15 15 14 14 15 16 16 14 11 10 7 4 4 3 1 3 4 5 6 6 6 7 7 7 9 11 12 13 18 23 25 26 27 27 28 28 27 28 28 24 24 22 17 20 26 24 22 23 22 20
17 18 18 16 16 18 18 19 21 21 22 23 23 22 22 21 22 23 22 21 20 20 20 20 20 20 19 17 16 18 19 19 18 17 17 17 16 16 17 19 20 20 18 13 10 7 5 6 5 1 2 2 3 4 4 4 6 8 8 9 11 12 14 17 18 19 21 23 24 24 24 23 26 27 23 23 22 18 20 23 21 21 23 22 21
19 20 19 18 18 18 18 19 20 20 20 21 21 21 21 21 21 21 21 21 21 21 21 20 20 20 19 17 16 17 19 19 18 17 16 17 17 17 18 19 21 22 19 14 11 10 7 7 7 4 2 3 3 5 5 4 6 9 10 11 12 12 14 14 13 13 16 20 20 20 20 20 24 25 23 22 21 19 19 20 20 21 22 21 19
18 19 20 21 21 20 19 20 20 20 19 20 20 20 21 21 21 21 21 22 22 22 21 20 19 19 20 19 18 19 20 20 18 17 16 14 14 16 17 17 19 20 19 15 12 10 7 6 6 5 3 4 3 6 7 6 7 8 9 12 12 12 13 12 10 11 13 14 15 17 17 17 17 19 20 20 19 19 19 18 18 19 20 20 19
19 19 21 23 22 22 22 22 22 21 20 19 19 19 19 20 21 20 20 21 22 21 21 20 19 19 19 18 19 20 21 20 19 19 17 13 11 11 12 13 13 14 15 15 13 10 7 6 5 3 3 5 6 7 7 7 7 7 9 12 12 12 12 10 8 9 10 10 13 16 15 13 14 15 16 15 14 16 16 15 16 18 20 20 20
22 22 23 23 22 22 23 23 24 23 22 21 21 21 21 21 21 21 20 21 22 22 22 21 21 20 19 18 19 19 20 21 20 20 20 17 14 13 13 12 11 11 12 13 13 11 9 10 11 10 9 8 7 7 8 7 7 8 10 13 13 12 13 12 11 11 11 12 14 15 15 15 14 13 12 12 11 12 13 14 15 18 19 19 19
23 23 22 21 20 21 21 21 22 22 23 24 23 23 23 23 22 22 21 22 22 22 22 22 22 23 23 22 21 20 20 21 20 20 20 19 18 17 16 15 15 14 13 13 13 11 9 9 10 10 12 13 10 8 7 6 7 8 9 11 12 11 11 11 11 12 12 12 12 12 13 13 12 11 10 10 10 10 11 12 13 16 17 16 17
23 23 22 21 20 20 20 20 21 21 22 23 23 23 23 23 22 22 21 21 21 21 20 19 21 24 25 25 25 24 24 23 22 21 20 19 17 17 16 17 17 15 13 12 12 11 10 8 7 6 8 9 9 8 7 5 4 5 5 5 6 6 5 5 5 6 5 6 7 8 9 9 8 9 9 9 9 9 10 11 13 14 15 14 15
23 23 22 22 22 21 21 21 21 21 21 21 21 22 22 22 22 22 22 23 22 22 21 20 21 23 24 25 25 26 26 25 24 23 22 20 19 17 16 18 18 15 12 11 10 10 10 10 9 8 6 6 5 5 6 6 6 7 7 7 7 6 2 1 1 1 1 3 5 6 7 8 8 8 8 8 8 9 9 10 11 12 13 14 16
22 22 22 22 22 21 21 21 21 21 20 19 20 20 21 22 22 23 23 24 24 25 25 24 23 24 24 24 25 25 25 25 24 23 22 21 21 20 19 21 21 17 12 11 10 10 11 10 11 10 8 6 6 6 5 4 4 5 6 7 8 7 1 2 2 2 5 5 5 5 5 6 7 7 8 8 8 8 8 9 10 11 12 14 15
19 20 21 22 22 22 22 21 21 21 20 19 20 20 20 21 23 23 23 23 24 25 26 26 26 26 25 26 26 26 26 26 25 24 23 22 22 22 21 22 21 17 15 14 14 13 13 12 12 11 9 7 7 6 5 4 3 4 5 5 6 5 2 3 3 4 5 6 6 5 5 5 6 7 7 8 9 9 9 8 9 10 12 13 13
19 20 20 20 22 23 23 22 22 22 21 20 20 21 21 21 22 22 22 22 23 24 25 25 26 26 27 27 27 27 27 27 27 27 26 26 25 25 24 23 22 20 18 19 19 18 17 16 14 12 10 8 7 6 5 4 3 4 4 3 2 2 2 4 5 6 6 6 6 5 6 6 6 6 7 7 7 7 7 6 4 5 9 11 10
22 23 23 23 24 24 24 24 23 23 22 21 21 22 21 21 22 22 22 22 22 23 24 24 24 25 26 26 26 26 26 26 26 26 26 27 27 27 27 26 25 23 22 22 21 20 18 17 16 14 13 12 11 9 7 7 6 5 4 3 3 4 5 6 8 10 10 9 9 10 11 10 9 9 10 10 10 8 7 6 5 4 4 7 8
24 25 26 26 26 25 25 25 25 25 24 24 24 24 23 22 23 23 23 22 23 23 23 23 23 24 24 24 24 24 24 24 25 25 25 25 25 25 25 26 26 25 24 23 22 21 20 18 16 14 13 13 12 11 10 10 8 6 5 5 6 7 8 10 11 11 12 12 12 12 11 10 9 9 9 9 9 8 7 6 6 6 5 6 8
24 25 26 26 25 25 26 26 26 26 26 26 27 27 26 25 25 25 25 24 24 24 24 24 23 23 23 23 22 22 22 23 23 24 23 23 23 23 23 23 23 23 23 23 23 22 21 20 19 18 16 15 15 14 14 14 12 10 8 6 4 4 6 8 9 9 10 10 9 9 8 7 7 7 7 7 7 8 7 7 7 8 6 6 7
21 21 22 22 23 24 25 26 26 26 27 27 28 29 29 28 27 27 27 26 25 25 24 24 23 22 22 22 22 22 22 23 23 24 23 23 23 22 22 21 21 20 21 22 21 20 20 20 20 20 19 19 19 19 18 18 18 17 16 15 12 10 7 4 4 6 7 6 6 6 7 6 6 6 7 7 8 8 7 7 9 10 8 6 6
19 18 18 18 20 21 23 24 25 26 26 27 29 30 30 30 30 31 30 29 28 27 25 24 24 22 22 22 22 23 24 25 25 26 25 24 23 22 22 22 22 21 22 21 19 16 15 15 16 17 17 17 18 18 17 17 17 17 17 17 17 16 15 12 9 8 7 7 6 5 6 6 6 5 6 8 9 9 8 6 6 8 7 6 8
19 18 17 17 18 19 21 22 23 24 25 26 28 29 29 30 32 33 32 30 30 30 29 28 26 24 22 23 23 25 26 26 25 25 24 24 23 22 23 23 23 22 21 19 16 14 14 15 16 16 16 16 17 17 16 15 14 14 14 14 14 14 15 15 12 10 8 7 5 4 4 5 5 5 5 6 7 10 10 8 7 8 7 6 11
20 19 18 18 18 18 19 20 21 22 23 24 25 25 25 26 28 31 31 30 30 31 31 32 30 27 24 23 24 25 26 25 22 21 21 21 20 20 20 20 20 20 19 18 17 17 18 19 18 17 17 16 16 16 15 15 14 13 12 12 13 13 12 12 11 9 7 6 4 3 3 4 5 5 5 5 6 7 8 9 11 10 8 7 12
21 20 19 19 18 18 19 20 20 21 21 22 22 22 22 22 24 27 29 28 28 29 31 33 33 30 27 24 23 24 25 24 22 21 20 20 20 20 19 18 18 17 16 16 16 19 20 20 20 19 18 17 16 16 15 14 13 13 12 12 13 12 10 8 8 7 6 5 4 4 5 5 6 7 8 8 8 5 5 8 10 9 8 11 15
21 20 19 19 18 18 19 19 20 20 20 20 20 21 21 20 20 22 26 26 26 26 28 30 31 31 28 25 23 22 22 21 20 21 21 21 20 20 20 20 20 18 16 16 17 18 18 18 19 19 18 16 16 16 15 14 13 13 12 13 12 10 8 7 6 5 5 5 4 4 5 5 5 7 7 6 5 4 3 4 6 8 12 16 17
20 19 19 19 18 18 18 18 19 20 19 19 18 19 20 20 19 19 22 25 25 24 23 25 27 27 27 25 23 21 20 18 17 18 19 19 20 21 23 24 23 22 22 22 22 20 16 15 16 17 17 16 16 15 14 14 14 13 12 12 10 9 9 8 6 3 3 3 2 3 3 3 3 5 5 4 4 4 5 8 10 14 19 20 18
17 18 18 18 18 18 18 18 18 19 18 17 17 17 18 19 18 18 19 22 24 24 22 21 22 23 22 22 22 21 19 18 17 16 16 16 17 18 20 22 23 23 25 26 26 24 20 16 14 14 15 15 14 14 14 14 14 13 11 11 10 9 9 8 6 5 4 3 1 2 3 3 4 5 5 6 6 7 7 9 12 14 16 17 16
15 15 16 16 17 17 18 18 18 18 18 17 16 16 17 17 17 17 18 20 22 25 23 19 19 20 20 19 20 21 19 18 17 17 16 15 13 12 13 16 19 21 23 24 25 24 23 22 20 18 18 16 14 13 14 13 14 14 13 11 10 10 9 7 6 6 6 5 3 4 5 6 6 5 4 6 7 7 7 8 10 11 11 11 12
16 16 17 18 18 18 18 18 17 17 16 16 16 17 18 17 15 15 17 18 20 24 24 20 17 17 19 18 18 19 20 18 15 14 15 16 16 15 15 16 17 17 19 20 21 21 22 23 23 23 23 19 14 12 13 13 12 13 13 11 10 10 9 7 6 7 6 5 3 3 5 5 4 3 2 4 5 5 5 7 8 9 9 9 9
19 19 19 18 17 17 16 17 17 16 16 16 16 16 17 16 14 13 13 15 18 21 23 21 17 15 16 17 17 17 19 19 18 15 13 14 16 18 19 18 18 18 19 18 18 18 19 20 21 23 24 21 15 12 13 12 11 12 13 12 12 12 9 5 4 5 5 4 2 3 4 4 2 2 2 2 2 3 5 7 9 9 8 8 7
19 18 17 17 16 16 16 16 16 16 16 17 17 18 17 16 14 12 12 13 16 18 21 21 20 17 15 16 16 16 17 20 22 22 19 16 16 19 20 18 17 18 20 19 17 16 15 16 18 21 22 20 16 13 13 12 10 11 11 11 12 13 10 7 6 6 6 5 3 2 4 5 4 3 2 1 1 1 4 7 8 8 8 7 6
16 16 16 16 16 16 16 15 15 15 14 13 13 15 16 16 16 14 12 12 14 16 17 19 20 19 16 15 15 16 17 19 22 23 22 19 17 18 20 19 17 17 19 21 20 15 12 13 16 19 19 17 14 12 12 11 10 9 9 8 9 9 9 9 9 9 8 9 6 3 3 5 5 3 2 1 1 2 4 6 6 7 6 5 5
16 15 15 14 13 12 13 14 15 15 14 12 9 9 11 13 14 14 12 11 12 13 15 16 17 17 15 15 15 15 15 17 20 21 20 19 18 19 20 20 19 17 19 23 22 17 13 14 16 19 18 15 12 10 10 9 8 7 6 6 8 8 6 6 7 7 7 8 9 7 5 5 4 3 2 1 1 1 0 1 2 3 3 4 5
16 14 12 10 11 12 11 11 13 14 14 13 12 11 11 12 12 12 11 11 11 12 13 14 15 14 14 14 15 14 14 14 17 18 18 17 18 19 20 21 20 18 18 22 23 20 18 17 16 17 18 16 13 12 10 7 6 6 6 5 6 6 7 7 7 7 6 5 6 8 9 7 5 4 3 2 2 2 1 1 1 1 1 5 8
14 13 10 7 6 10 13 14 13 12 12 12 12 11 10 9 9 10 10 10 9 9 11 12 12 12 13 13 13 14 14 13 13 15 16 16 17 18 18 20 20 19 18 19 21 21 22 21 19 18 17 15 14 13 11 7 5 5 5 6 6 6 6 8 8 8 7 6 4 3 4 4 4 4 3 1 2 3 3 2 4 5 4 5 7
13 13 10 6 5 7 12 15 15 13 12 11 10 9 8 7 7 10 11 9 7 6 8 10 11 10 10 11 11 13 15 14 12 12 14 15 16 17 17 18 19 19 18 18 18 19 21 22 21 19 18 15 13 12 10 9 9 7 6 7 8 7 7 7 8 7 7 7 5 2 1 1 2 3 2 2 2 3 4 2 3 3 3 5 6
12 11 9 6 6 8 11 12 12 11 11 10 9 8 7 7 8 10 11 10 8 6 6 7 8 8 8 9 10 12 13 13 12 12 13 12 14 16 16 15 17 19 19 17 16 17 20 21 20 20 20 18 16 12 9 10 11 11 8 8 8 9 9 9 8 8 7 6 5 4 3 1 1 1 0 1 1 2 2 1 2 1 1 2 3
9 8 8 7 7 7 8 9 8 8 7 8 7 5 5 5 6 8 10 10 9 9 7 6 5 6 6 7 9 10 10 10 11 12 12 11 12 13 14 13 15 18 19 17 16 16 18 18 19 20 21 20 19 16 12 11 12 13 12 11 9 9 9 9 9 10 9 8 7 5 3 2 0 1 2 2 2 2 3 3 3 2 2 2 1
10 8 7 6 5 4 4 6 6 6 5 5 4 3 4 5 4 5 7 8 9 10 9 6 4 4 5 7 8 8 8 9 10 11 11 10 9 10 12 13 15 16 17 18 17 16 17 17 18 19 20 20 21 19 16 14 13 12 11 11 10 10 10 10 9 9 9 9 9 7 4 2 2 3 3 3 2 1 2 3 4 5 5 5 4
10 8 7 6 4 4 3 6 6 5 4 3 3 2 2 5 4 3 4 5 6 7 9 8 6 6 7 8 7 6 6 8 8 9 9 8 8 9 11 13 13 14 15 17 17 16 17 17 17 19 20 21 22 22 19 15 13 11 11 11 11 10 10 10 9 8 7 8 10 11 8 6 5 5 6 5 4 3 3 4 4 5 6 7 7
10 9 8 6 5 4 3 3 3 3 3 3 3 2 2 3 4 4 4 4 4 5 6 7 6 6 8 9 8 8 8 8 7 7 8 8 9 11 12 13 12 12 14 16 17 17 17 15 16 18 20 20 22 23 21 17 15 13 12 12 12 11 10 10 10 9 8 7 10 13 13 11 9 8 8 9 9 7 6 6 7 6 5 7 8
8 9 9 7 6 4 2 1 2 3 2 1 1 2 2 1 1 1 3 4 3 3 4 5 5 5 6 7 7 8 8 8 8 8 8 8 10 12 13 12 12 11 13 15 16 16 16 15 15 17 19 19 20 22 22 21 20 18 16 14 13 12 12 11 10 9 9 8 9 12 15 16 15 13 12 12 12 11 9 7 7 6 6 6 7
8 8 7 7 7 6 4 3 4 3 2 1 2 2 2 3 4 4 4 3 3 2 3 4 5 6 7 7 6 6 6 7 8 8 8 8 10 11 11 11 11 11 11 13 13 13 14 15 15 16 17 18 19 21 22 22 23 22 20 19 17 15 14 12 11 11 10 10 9 10 12 15 17 17 17 16 16 15 14 11 9 8 7 7 7
7 7 8 7 6 7 7 6 4 4 4 3 2 3 4 4 4 5 6 7 7 8 7 5 5 6 7 8 9 8 6 6 7 8 9 9 9 8 8 10 12 12 12 12 12 12 13 14 14 15 16 17 18 20 21 22 22 21 21 22 23 21 18 16 14 13 12 11 10 10 10 12 14 16 17 17 17 17 17 16 14 13 12 10 9
Wind_Direction
4 9 20 26 32 41 40 33 29 22 15 9 0 354 354 351 350 353 353 353 355 356 358 359 358 358 4 5 357 351 342 342 347 333 316 313 301 296 294 292 296 230 202 199 183 179 198 207 211 221 221 216 220 224 226 224 216 213 217 214 211 214 207 205 211 206 202 207 205 197 195 197 199 202 202 199 200 209 213 208 206 210 211 212 212
24 32 34 36 42 48 41 26 20 15 10 6 360 355 356 354 354 356 357 357 359 360 1 3 3 5 12 15 13 16 18 15 18 22 12 352 332 318 332 359 42 80 146 179 176 181 200 202 211 235 238 232 232 232 231 229 219 215 221 219 211 208 203 203 213 213 207 204 202 200 199 200 202 200 198 199 205 215 213 204 202 205 208 211 214
33 37 33 30 35 43 39 28 20 13 8 5 0 358 355 351 354 1 4 4 3 3 5 6 6 6 7 15 26 30 29 28 28 28 24 18 19 10 8 30 70 121 144 170 183 193 207 214 227 241 242 238 239 237 230 225 223 223 223 215 207 207 205 204 208 210 210 203 198 198 196 195 201 200 192 196 214 220 210 204 203 202 202 205 211
33 35 29 20 22 31 36 33 23 13 9 7 7 6 359 350 354 1 4 8 8 5 9 9 6 5 4 11 26 32 30 31 26 21 24 21 16 1 336 323 282 252 200 189 213 217 209 222 240 247 245 242 242 238 229 221 218 222 223 213 206 209 208 206 206 206 208 203 198 199 195 192 199 199 187 194 217 219 204 202 200 193 191 190 194
28 27 21 17 23 33 39 37 30 22 18 18 17 13 4 358 359 358 2 16 16 8 11 14 11 11 9 10 23 30 28 29 26 24 24 15 11 9 343 339 326 295 266 225 239 238 223 225 241 248 245 241 240 234 227 222 212 213 220 216 212 215 211 208 207 203 205 205 200 197 194 191 194 193 186 194 208 200 191 196 192 183 186 185 182
16 16 19 28 33 35 37 36 34 30 25 25 23 15 9 6 4 360 3 22 23 10 8 11 13 14 11 14 25 29 28 30 31 31 26 19 27 36 16 20 28 348 308 284 271 268 245 230 237 243 243 237 229 219 218 218 210 212 220 215 212 215 206 201 203 201 203 206 201 195 190 189 189 187 188 202 207 189 178 185 188 185 190 194 190
22 33 37 42 40 36 36 35 36 36 33 31 27 20 17 16 15 13 13 20 25 20 13 9 12 12 10 16 21 21 32 43 40 38 38 37 45 53 44 42 43 34 33 22 285 290 278 246 235 236 240 231 212 206 213 220 214 215 221 217 212 211 205 201 203 203 203 202 197 192 189 188 191 189 190 205 211 193 174 179 192 195 196 200 200
39 47 45 46 44 41 39 39 43 45 42 39 34 28 27 29 30 28 26 27 29 32 27 17 14 15 16 19 17 21 46 58 51 43 43 46 49 48 49 48 41 35 39 34 353 304 271 260 249 237 230 229 224 216 219 226 221 217 222 222 214 211 210 208 206 204 202 198 191 186 185 187 192 192 186 190 199 190 175 180 198 202 196 197 206
47 50 47 51 52 48 47 49 51 50 48 46 43 41 40 40 41 42 42 43 39 37 38 30 23 25 27 27 25 30 49 60 58 51 46 41 40 41 48 50 42 35 28 18 8 345 317 299 277 263 254 255 252 239 228 227 222 216 218 218 213 212 212 210 209 206 199 192 186 183 185 186 189 191 183 181 191 189 180 187 204 206 198 198 207
54 54 50 58 62 57 55 56 56 54 54 53 52 52 51 49 51 54 55 55 49 43 43 41 38 37 37 40 44 46 50 53 54 54 48 42 43 48 46 41 36 32 28 19 13 357 341 337 307 282 278 266 253 239 226 219 214 213 218 219 217 216 214 212 210 205 195 189 187 186 187 187 189 192 188 185 190 191 189 196 204 204 199 198 201
64 59 54 61 66 62 59 59 60 60 60 59 59 58 57 56 58 60 60 59 58 56 53 52 50 47 47 50 54 56 55 50 48 50 47 38 37 39 37 35 33 32 29 21 16 9 356 354 345 287 254 245 236 223 213 209 210 211 212 217 218 217 218 216 208 201 196 191 187 184 184 182 181 184 187 190 192 193 197 200 200 199 200 203 203
70 65 61 62 65 63 61 64 64 64 65 64 63 61 58 57 58 59 59 60 61 61 58 55 51 48 47 50 55 58 58 54 51 51 49 40 35 35 36 37 36 34 29 17 10 7 6 17 14 307 245 234 220 206 197 194 201 203 197 203 211 214 220 220 212 206 201 194 188 185 183 180 178 179 184 189 188 184 188 195 197 198 202 206 207
73 70 68 66 67 66 65 69 70 69 69 68 67 65 61 58 57 56 57 56 56 57 54 50 47 43 43 48 55 57 57 55 51 50 49 45 41 41 44 43 41 39 34 24 15 12 16 26 23 349 221 211 217 208 192 180 194 202 200 202 207 209 215 220 220 217 208 200 197 195 192 191 191 192 194 197 195 184 179 186 192 196 199 203 207
79 76 73 70 71 70 70 73 75 75 73 71 71 70 66 62 59 57 56 53 52 52 50 48 48 47 47 51 53 52 49 46 42 41 43 44 41 41 44 44 41 42 44 41 34 25 15 17 17 17 87 129 183 202 194 188 202 206 198 194 196 198 202 211 220 219 208 204 207 208 206 205 203 204 207 210 210 207 200 198 200 198 198 199 200
83 82 79 75 73 72 72 75 78 80 79 76 74 72 69 65 61 56 54 52 50 51 52 52 53 53 53 53 52 49 46 42 38 36 38 40 41 39 39 39 39 42 49 53 46 33 18 10 7 4 41 94 146 184 187 193 206 194 166 163 176 186 189 198 211 210 202 200 204 206 206 203 202 207 212 213 215 218 218 217 214 210 210 212 211
82 83 83 80 77 74 72 72 73 75 76 76 76 74 71 68 64 59 55 53 51 50 50 52 54 55 55 53 50 49 49 47 44 44 43 41 42 43 40 38 38 39 47 51 50 48 47 51 57 63 92 116 136 156 166 181 196 181 150 147 162 171 169 169 181 190 186 185 191 196 198 198 198 202 206 207 211 215 214 213 211 211 216 220 221
81 83 84 82 80 77 74 72 71 69 68 68 68 68 67 66 64 61 58 56 54 51 50 51 52 53 53 51 49 50 50 48 46 48 49 46 48 53 55 57 58 59 64 69 66 60 53 53 62 75 87 103 132 154 159 162 161 152 144 142 141 136 131 129 137 149 159 167 176 183 187 188 187 189 191 192 199 208 214 217 213 209 213 217 217
85 86 85 83 81 78 75 74 73 71 68 67 66 64 63 62 61 60 59 58 57 54 53 54 53 53 53 52 51 51 52 50 46 47 49 48 50 56 59 63 68 71 76 82 81 73 63 52 47 54 68 80 98 119 126 132 135 130 125 125 124 115 107 109 117 123 132 147 158 165 171 174 173 178 187 195 201 207 215 221 216 211 213 218 218
85 86 84 82 79 75 73 72 71 71 71 70 69 66 64 62 61 59 57 56 57 55 52 52 53 54 54 54 54 53 54 54 51 50 50 50 50 55 58 59 59 61 66 74 79 81 81 74 57 44 51 66 83 91 79 71 90 98 92 99 115 121 114 111 111 105 113 142 161 170 174 174 176 183 191 201 209 211 211 214 216 216 218 217 216
84 84 82 81 77 74 73 71 69 70 70 71 72 70 68 66 63 61 59 56 55 54 52 50 51 52 52 52 53 53 51 51 50 49 48 48 46 46 50 51 46 44 50 60 68 76 80 78 72 63 51 42 43 52 56 52 55 67 76 92 108 118 118 82 100 137 220 198 190 189 184 180 183 189 193 199 205 207 208 211 213 213 213 208 204
88 86 82 80 76 74 73 70 69 69 69 70 72 72 71 69 65 64 62 60 58 58 57 55 56 57 55 52 51 50 47 45 43 41 39 40 40 39 43 46 41 35 37 45 51 60 65 68 68 62 57 55 50 51 65 69 58 63 78 95 108 113 119 297 291 268 265 252 226 204 184 177 177 179 184 190 191 190 194 201 200 196 198 198 196
91 89 87 83 80 77 74 72 72 72 70 70 70 70 71 70 69 67 66 64 63 62 61 60 60 61 59 55 51 49 46 43 42 41 40 38 37 37 40 43 40 35 38 43 45 47 49 53 56 54 54 65 72 71 76 65 42 52 70 89 111 127 174 230 235 242 243 236 224 202 171 160 159 159 164 167 167 170 175 182 187 187 188 192 194
89 88 87 85 83 80 77 75 75 74 73 73 72 71 69 68 68 67 66 65 65 63 61 60 59 58 57 56 54 51 50 48 47 46 46 45 44 42 41 41 39 34 36 41 43 43 43 43 45 46 47 54 66 78 90 87 68 70 83 97 114 138 174 175 168 175 185 194 192 161 129 117 117 117 117 118 123 141 155 153 149 164 180 189 196
91 88 85 83 82 81 78 76 75 74 73 73 72 72 70 68 67 65 62 62 62 61 60 58 57 56 54 53 53 52 51 52 51 50 50 49 48 47 45 43 41 39 39 42 41 38 37 36 36 36 38 42 46 53 65 75 83 98 117 140 147 147 152 149 145 145 145 144 138 123 107 94 84 79 78 83 90 99 116 120 108 110 153 181 186
90 88 85 82 81 78 76 74 72 72 72 71 70 69 68 68 67 64 62 61 59 60 59 57 57 58 56 54 53 52 51 51 51 51 50 49 49 49 47 46 45 43 44 46 45 41 37 34 30 28 29 33 35 36 41 48 57 73 93 114 132 132 123 116 117 119 117 114 112 110 102 88 77 76 79 82 84 89 101 116 123 129 151 172 172
90 86 83 78 74 72 70 68 67 69 70 69 68 65 63 63 64 63 61 60 58 58 58 57 57 58 59 58 56 55 54 52 51 50 48 48 48 47 47 47 47 46 46 46 46 45 44 42 40 39 37 38 38 40 43 43 41 44 52 61 82 108 119 121 115 106 100 98 96 95 91 81 81 95 104 97 83 82 93 108 121 131 144 167 181
87 83 80 75 70 68 66 64 63 64 66 66 64 61 58 58 59 59 59 58 58 58 58 57 55 55 57 58 56 55 55 54 53 52 50 48 48 47 47 47 47 46 46 44 42 42 44 45 47 47 46 46 46 46 47 46 43 42 40 37 34 34 37 61 90 91 89 90 91 90 86 84 91 107 122 126 115 105 108 115 116 119 122 123 143
89 84 79 76 72 70 68 65 63 61 62 63 62 58 54 53 53 54 55 55 56 57 57 57 55 53 55 56 55 56 56 55 54 53 52 52 53 52 51 49 47 47 48 46 44 41 41 44 47 47 45 42 41 41 41 42 41 40 36 32 30 29 28 31 44 59 59 59 73 90 93 95 105 121 141 146 135 126 132 139 134 134 130 108 109
102 96 88 81 77 74 71 68 65 62 61 61 60 58 55 52 51 52 53 55 57 57 57 57 54 52 53 55 57 58 57 55 56 56 55 55 55 55 54 52 49 48 48 47 45 42 41 42 43 43 42 40 38 38 37 36 35 34 32 29 27 26 25 27 36 49 56 54 56 68 86 98 111 132 158 163 150 144 149 155 159 162 155 121 110
104 100 93 87 83 79 76 72 68 65 61 59 59 59 58 56 52 50 51 54 57 58 58 57 56 54 55 58 61 60 56 53 52 54 55 53 51 50 50 47 44 44 43 39 37 37 38 37 37 38 38 37 38 40 39 37 36 35 36 34 33 33 32 29 30 41 64 79 74 74 107 120 117 126 146 161 169 173 174 167 161 165 174 157 132
102 100 96 92 88 83 79 76 73 69 65 62 60 59 57 58 56 52 49 51 55 58 58 57 57 57 58 62 65 63 57 53 52 52 52 50 46 43 41 37 35 34 32 28 31 38 40 37 36 37 35 32 32 32 31 32 35 37 37 37 35 35 36 41 44 49 70 95 99 96 107 111 111 120 135 151 162 174 189 182 176 179 180 163 145
104 102 99 96 93 90 86 82 77 73 69 66 65 62 58 58 60 56 48 46 50 55 57 57 57 58 60 63 65 63 59 57 58 56 52 49 45 42 39 38 37 34 30 29 35 43 44 38 36 35 30 27 28 27 25 26 29 32 34 35 38 39 37 42 56 69 86 106 118 114 108 109 116 117 121 140 152 134 109 141 165 166 158 152 148
112 109 105 100 97 94 92 91 87 82 75 68 67 68 64 63 67 64 52 44 46 51 56 59 59 58 59 60 61 61 60 58 59 60 56 53 51 46 43 42 40 36 34 34 37 41 40 36 36 36 31 27 25 22 21 23 24 28 31 31 33 35 30 34 51 71 78 89 103 105 107 123 132 118 107 114 136 130 111 114 126 139 146 147 145
122 118 114 108 102 97 94 93 92 91 87 78 73 73 72 71 73 69 54 44 45 47 51 60 64 60 60 60 57 54 55 55 55 55 54 56 56 53 50 48 44 39 36 34 34 35 33 29 28 26 21 19 16 15 18 19 19 24 28 25 23 21 19 30 56 68 64 75 86 74 90 112 121 123 131 139 140 141 139 135 137 143 148 149 147
125 124 121 112 104 98 95 93 92 91 90 86 80 79 78 74 70 63 51 45 45 45 46 56 65 64 63 64 55 46 47 52 54 51 47 45 43 39 40 43 43 42 39 35 31 29 27 25 22 17 11 7 7 13 20 19 20 26 25 18 16 17 14 20 39 50 61 81 91 83 87 88 84 94 136 152 144 137 136 140 147 151 153 155 153
111 113 111 102 92 87 87 89 91 93 94 91 86 84 81 73 65 58 51 47 47 45 45 52 65 68 66 62 51 39 36 40 46 47 41 34 30 28 29 30 30 33 35 34 31 28 23 19 15 14 13 10 8 15 22 22 28 34 32 26 22 21 22 31 34 32 43 59 71 85 87 79 66 70 109 126 124 121 125 138 152 158 159 159 150
104 103 103 99 94 90 85 80 81 86 91 90 85 82 81 78 70 58 51 49 47 44 42 47 60 69 65 56 47 37 30 29 33 38 36 30 28 29 29 26 23 25 29 31 29 26 22 16 10 9 13 15 16 23 29 31 34 38 37 38 35 28 28 43 36 16 21 34 56 88 78 63 71 120 117 103 105 117 130 142 150 153 155 159 156
107 105 106 108 112 111 102 89 81 80 78 76 72 68 70 77 77 66 55 53 49 43 39 42 51 58 58 50 44 37 29 26 28 32 35 35 30 27 27 26 24 26 28 27 22 17 14 13 10 7 10 14 20 30 36 36 35 34 34 35 33 30 30 32 20 7 12 15 12 79 82 64 71 115 148 225 273 155 141 147 154 154 154 163 167
114 111 109 110 115 119 116 109 100 91 82 75 68 59 56 64 73 71 58 48 45 43 40 41 46 51 51 47 41 37 31 27 25 25 29 33 30 24 22 22 22 24 24 21 18 14 7 3 3 4 8 13 18 25 30 32 32 33 31 26 23 22 24 25 25 30 43 41 33 47 86 62 61 90 134 148 114 126 129 137 151 158 158 162 161
112 107 102 97 94 102 116 123 119 111 101 91 83 71 60 62 73 77 65 49 45 48 46 40 38 41 42 39 37 35 32 28 24 21 23 27 25 19 16 16 17 23 23 19 18 19 13 4 1 3 8 15 19 17 16 18 21 23 20 13 13 10 2 5 12 19 36 50 55 67 85 80 62 49 30 25 69 140 182 168 173 178 171 164 161
106 105 106 95 70 63 83 115 128 125 114 99 88 84 80 79 81 80 69 59 55 50 41 32 30 34 35 32 30 29 27 23 20 18 18 19 16 12 11 11 14 20 23 19 19 24 27 24 19 12 10 13 15 12 8 4 7 12 5 351 351 352 343 343 349 350 351 15 51 71 89 100 89 55 29 37 70 73 21 313 314 323 151 157 161
112 117 117 106 68 59 72 91 107 119 120 109 93 81 74 75 72 59 48 53 60 48 31 27 31 36 35 32 31 28 23 17 13 13 15 15 10 7 8 8 9 17 23 20 18 23 27 29 30 26 17 10 4 3 5 5 2 3 354 336 329 327 325 328 337 343 342 339 354 45 84 95 84 72 70 80 94 99 103 76 36 31 71 127 150
116 124 119 104 91 83 79 82 90 98 102 100 93 79 61 48 41 35 34 43 58 53 36 32 36 38 32 29 31 28 23 20 15 8 9 11 7 6 8 7 4 8 15 15 13 17 19 20 25 29 26 18 6 356 352 352 350 343 324 313 315 315 313 315 322 331 337 342 344 341 325 37 67 82 72 48 80 124 133 95 34 30 79 103 113
111 123 128 125 120 104 85 78 84 91 86 83 87 86 66 41 32 35 42 47 48 41 23 14 23 36 39 35 32 27 23 22 19 8 4 4 1 3 8 7 360 0 5 7 8 11 11 12 19 26 26 24 22 11 350 343 351 355 347 328 316 310 306 306 308 309 312 324 336 337 333 350 74 136 91 17 63 144 181 267 328 333 146 113 87
122 132 146 148 135 112 83 71 81 94 91 87 94 93 65 41 34 38 44 43 31 21 11 7 28 53 53 38 33 30 23 19 17 11 4 360 357 0 5 3 356 358 1 0 0 4 4 5 12 17 18 21 26 23 9 355 357 2 4 358 346 331 318 310 307 305 299 293 296 311 334 11 44 223 240 264 271 262 259 264 269 257 211 195 238
143 146 157 160 150 123 74 66 91 120 118 103 112 106 52 41 37 41 45 39 24 22 32 45 63 65 38 21 24 30 22 14 13 13 9 4 358 356 357 355 354 356 357 353 352 354 357 360 4 5 5 11 16 17 14 9 3 357 355 354 351 347 340 331 321 312 296 275 266 271 280 277 249 236 231 240 252 241 222 232 254 268 255 235 244
143 142 151 166 175 164 104 71 87 129 138 113 132 157 58 42 44 56 56 36 16 25 41 46 41 33 27 20 15 8 3 5 8 8 8 8 2 353 348 348 348 347 347 347 349 349 349 353 357 356 356 0 4 4 6 10 9 2 354 349 347 346 344 341 337 327 304 270 252 252 257 259 258 253 246 241 235 224 224 232 241 258 267 260 259
150 158 164 164 163 161 129 67 75 134 130 95 100 128 104 79 76 67 48 21 357 7 24 28 28 33 35 32 26 14 4 0 357 353 350 350 351 351 349 345 341 338 338 342 344 343 341 344 347 348 348 352 355 355 356 360 5 6 2 354 349 346 343 340 338 333 319 286 254 246 246 248 253 257 257 253 244 235 238 251 252 247 251 255 253
162 172 173 160 150 153 159 162 163 151 107 58 209 208 215 227 245 359 18 22 16 360 353 354 356 359 3 8 16 20 14 2 350 346 346 344 344 346 348 346 342 338 337 336 335 335 337 338 338 340 342 346 349 350 350 352 357 1 2 358 353 349 345 341 337 332 326 309 277 256 249 248 250 254 257 258 253 242 234 241 248 240 225 220 229
174 178 172 164 170 181 186 182 171 145 110 133 189 202 263 290 283 283 291 303 316 319 322 336 340 333 327 326 332 348 6 6 356 347 345 345 345 344 346 348 349 345 340 335 332 333 335 334 333 335 338 341 343 344 345 349 354 360 5 5 0 353 347 342 338 333 328 319 302 280 261 252 251 253 254 255 256 253 244 237 232 227 219 215 221
184 196 185 181 194 206 206 212 225 222 219 236 274 305 308 303 295 282 273 271 278 283 286 298 318 319 312 312 312 309 312 333 344 339 335 338 342 342 341 345 347 347 343 338 332 330 329 329 329 331 333 334 336 339 342 347 353 359 4 6 4 359 353 346 338 333 330 326 316 302 284 264 254 252 250 250 254 258 255 246 235 227 221 218 223